H1 CPF 2 NER 2021 8 25 9 237 01 glonass137 H2 1705501 9137 42939 2021 8 25 0 0 0 2021 8 28 23 45 0 900 1 1 0 0 0 1 H9 10 0 59451 0.00000 0 -6169247.696 24198306.658 -5133080.071 10 0 59451 900.00000 0 -5957627.783 23392327.691 -8196029.004 10 0 59451 1800.00000 0 -5786482.756 22205976.758 -11099464.633 10 0 59451 2700.00000 0 -5706645.155 20665866.512 -13786849.088 10 0 59451 3600.00000 0 -5763298.773 18810319.437 -16205846.425 10 0 59451 4500.00000 0 -5993848.751 16687900.868 -18309349.817 10 0 59451 5400.00000 0 -6426130.198 14355536.578 -20056405.367 10 0 59451 6300.00000 0 -7077032.457 11876293.661 -21413014.057 10 0 59451 7200.00000 0 -7951598.184 9316917.821 -22352795.895 10 0 59451 8100.00000 0 -9042636.152 6745230.217 -22857503.352 10 0 59451 9000.00000 0 -10330864.831 4227492.689 -22917374.275 10 0 59451 9900.00000 0 -11785581.149 1825851.388 -22531317.703 10 0 59451 10800.00000 0 -13365826.620 -404034.876 -21706929.416 10 0 59451 11700.00000 0 -15022002.037 -2415083.299 -20460337.356 10 0 59451 12600.00000 0 -16697862.870 -4170506.490 -18815880.351 10 0 59451 13500.00000 0 -18332811.572 -5645092.213 -16805626.896 10 0 59451 14400.00000 0 -19864390.500 -6825991.639 -14468743.675 10 0 59451 15300.00000 0 -21230870.648 -7712984.952 -11850726.574 10 0 59451 16200.00000 0 -22373827.497 -8318215.277 -9002509.543 10 0 59451 17100.00000 0 -23240595.837 -8665404.215 -5979468.963 10 0 59451 18000.00000 0 -23786500.566 -8788583.968 -2840343.396 10 0 59451 18900.00000 0 -23976770.017 -8730401.340 353909.955 10 0 59451 19800.00000 0 -23788051.798 -8540066.711 3541299.546 10 0 59451 20700.00000 0 -23209467.909 -8271035.755 6660001.235 10 0 59451 21600.00000 0 -22243165.319 -7978522.665 9649554.115 10 0 59451 22500.00000 0 -20904339.298 -7716950.388 12452027.374 10 0 59451 23400.00000 0 -19220728.856 -7537445.621 15013135.839 10 0 59451 24300.00000 0 -17231605.480 -7485484.170 17283283.218 10 0 59451 25200.00000 0 -14986297.271 -7598785.636 19218513.628 10 0 59451 26100.00000 0 -12542309.617 -7905545.754 20781353.886 10 0 59451 27000.00000 0 -9963119.946 -8423080.517 21941531.272 10 0 59451 27900.00000 0 -7315737.188 -9156939.036 22676553.856 10 0 59451 28800.00000 0 -4668126.160 -10100522.631 22972142.882 10 0 59451 29700.00000 0 -2086602.341 -11235226.775 22822509.436 10 0 59451 30600.00000 0 366696.385 -12531100.968 22230470.186 10 0 59451 31500.00000 0 2636157.446 -13948000.199 21207399.782 10 0 59451 32400.00000 0 4674764.645 -15437181.353 19773020.259 10 0 59451 33300.00000 0 6445807.600 -16943279.344 17955030.581 10 0 59451 34200.00000 0 7924159.179 -18406581.737 15788582.389 10 0 59451 35100.00000 0 9097068.295 -19765507.836 13315610.819 10 0 59451 36000.00000 0 9964435.271 -20959189.243 10584032.082 10 0 59451 36900.00000 0 10538558.395 -21930043.958 7646822.322 10 0 59451 37800.00000 0 10843362.389 -22626235.876 4560994.744 10 0 59451 38700.00000 0 10913141.350 -23003915.671 1386494.388 10 0 59451 39600.00000 0 10790869.293 -23029147.768 -1814968.034 10 0 59451 40500.00000 0 10526149.981 -22679440.968 -4981120.293 10 0 59451 41400.00000 0 10172893.272 -21944816.712 -8050346.780 10 0 59451 42300.00000 0 9786817.096 -20828368.491 -10962895.979 10 0 59451 43200.00000 0 9422881.797 -19346287.364 -13662052.802 10 0 59451 44100.00000 0 9132766.642 -17527351.255 -16095251.972 10 0 59451 45000.00000 0 8962496.504 -15411898.560 -18215109.753 10 0 59451 45900.00000 0 8950320.375 -13050328.452 -19980353.247 10 0 59451 46800.00000 0 9124932.507 -10501190.356 -21356628.649 10 0 59451 47700.00000 0 9504112.251 -7828942.457 -22317172.398 10 0 59451 48600.00000 0 10093840.793 -5101472.922 -22843332.180 10 0 59451 49500.00000 0 10887932.516 -2387487.302 -22924927.811 10 0 59451 50400.00000 0 11868196.853 246128.858 -22560445.265 10 0 59451 51300.00000 0 13005123.879 2736862.492 -21757060.519 10 0 59451 52200.00000 0 14259064.801 5028934.728 -20530493.160 10 0 59451 53100.00000 0 15581857.454 7075374.032 -18904693.089 10 0 59451 54000.00000 0 16918828.223 8839715.496 -16911366.818 10 0 59451 54900.00000 0 18211085.901 10297256.781 -14589353.000 10 0 59451 55800.00000 0 19398010.731 11435819.830 -11983859.748 10 0 59451 56700.00000 0 20419833.682 12255988.498 -9145578.995 10 0 59451 57600.00000 0 21220197.302 12770814.145 -6129695.479 10 0 59451 58500.00000 0 21748590.306 13005003.642 -2994810.116 10 0 59451 59400.00000 0 21962553.533 12993625.908 198200.965 10 0 59451 60300.00000 0 21829564.589 12780393.230 3387369.236 10 0 59451 61200.00000 0 21328522.177 12415591.251 6510835.160 10 0 59451 62100.00000 0 20450767.970 11953746.015 9508044.781 10 0 59451 63000.00000 0 19200603.371 11451127.216 12320918.465 10 0 59451 63900.00000 0 17595279.628 10963193.213 14894969.379 10 0 59451 64800.00000 0 15664461.694 10542085.540 17180350.660 10 0 59451 65700.00000 0 13449187.956 10234278.123 19132811.801 10 0 59451 66600.00000 0 11000368.753 10078479.737 20714546.586 10 0 59451 67500.00000 0 8376885.416 10103877.392 21894917.235 10 0 59451 68400.00000 0 5643367.735 10328794.082 22651041.653 10 0 59451 69300.00000 0 2867740.941 10759817.069 22968233.240 10 0 59451 70200.00000 0 118642.442 11391433.403 22840285.282 10 0 59451 71100.00000 0 -2537186.157 12206188.476 22269594.650 10 0 59451 72000.00000 0 -5037425.048 13175361.799 21267122.205 10 0 59451 72900.00000 0 -7326516.921 14260132.833 19852190.149 10 0 59451 73800.00000 0 -9357726.413 15413189.365 18052119.304 10 0 59451 74700.00000 0 -11094833.533 16580712.310 15901712.244 10 0 59451 75600.00000 0 -12513391.257 17704654.953 13442590.996 10 0 59451 76500.00000 0 -13601495.207 18725221.876 10722400.843 10 0 59451 77400.00000 0 -14360033.335 19583443.966 7793894.624 10 0 59451 78300.00000 0 -14802405.222 20223741.263 4713914.387 10 0 59451 79200.00000 0 -14953722.780 20596365.355 1542289.660 10 0 59451 80100.00000 0 -14849526.017 20659617.504 -1659326.319 10 0 59451 81000.00000 0 -14534068.231 20381747.737 -4828659.521 10 0 59451 81900.00000 0 -14058243.443 19742453.265 -7904033.237 10 0 59451 82800.00000 0 -13477244.268 18733911.373 -10825576.700 10 0 59451 83700.00000 0 -12848050.105 17361301.591 -13536399.749 10 0 59451 84600.00000 0 -12226852.936 15642793.565 -15983709.658 10 0 59451 85500.00000 0 -11666530.644 13608999.861 -18119847.373 10 0 59452 0.00000 0 -11214275.750 11301915.671 -19903222.242 10 0 59452 900.00000 0 -10909481.093 8773388.773 -21299126.674 10 0 59452 1800.00000 0 -10781971.473 6083184.214 -22280414.153 10 0 59452 2700.00000 0 -10850658.379 3296723.261 -22828027.873 10 0 59452 3600.00000 0 -11122672.773 482591.658 -22931369.601 10 0 59452 4500.00000 0 -11593014.057 -2290079.228 -22588501.884 10 0 59452 5400.00000 0 -12244729.185 -4954249.397 -21806180.177 10 0 59452 6300.00000 0 -13049614.292 -7447515.836 -20599714.654 10 0 59452 7200.00000 0 -13969408.769 -9714461.238 -18992664.862 10 0 59452 8100.00000 0 -14957431.032 -11708708.780 -17016373.603 10 0 59452 9000.00000 0 -15960586.529 -13394598.491 -14709349.496 10 0 59452 9900.00000 0 -16921662.887 -14748416.527 -12116510.673 10 0 59452 10800.00000 0 -17781815.027 -15759127.762 -9288304.711 10 0 59452 11700.00000 0 -18483135.169 -16428582.863 -6279722.286 10 0 59452 12600.00000 0 -18971199.112 -16771193.127 -3149224.211 10 0 59452 13500.00000 0 -19197481.340 -16813088.720 42396.927 10 0 59452 14400.00000 0 -19121537.167 -16590797.551 3233198.088 10 0 59452 15300.00000 0 -18712860.043 -16149501.989 6361286.808 10 0 59452 16200.00000 0 -17952335.996 -15540948.113 9366018.539 10 0 59452 17100.00000 0 -16833234.139 -14821096.512 12189167.238 10 0 59452 18000.00000 0 -15361691.693 -14047614.064 14776046.737 10 0 59452 18900.00000 0 -13556673.095 -13277312.434 17076561.776 10 0 59452 19800.00000 0 -11449404.510 -12563640.838 19046169.176 10 0 59452 20700.00000 0 -9082306.844 -11954338.001 20646731.360 10 0 59452 21600.00000 0 -6507470.812 -11489341.325 21847246.800 10 0 59452 22500.00000 0 -3784736.337 -11199040.360 22624444.189 10 0 59452 23400.00000 0 -979454.746 -11102947.309 22963229.629 10 0 59452 24300.00000 0 1839974.997 -11208839.976 22856978.776 10 0 59452 25200.00000 0 4604695.507 -11512413.060 22307668.500 10 0 59452 26100.00000 0 7247999.921 -11997452.747 21325845.322 10 0 59452 27000.00000 0 9707853.892 -12636527.943 19930430.734 10 0 59452 27900.00000 0 11929227.346 -13392170.095 18148366.235 10 0 59452 28800.00000 0 13866140.065 -14218493.154 16014103.825 10 0 59452 29700.00000 0 15483336.692 -15063186.750 13568950.593 10 0 59452 30600.00000 0 16757521.807 -15869799.719 10860278.733 10 0 59452 31500.00000 0 17678103.467 -16580218.525 7940615.286 10 0 59452 32400.00000 0 18247414.149 -17137236.434 4866628.357 10 0 59452 33300.00000 0 18480399.638 -17487104.898 1698028.934 10 0 59452 34200.00000 0 18403788.827 -17581958.787 -1503590.403 10 0 59452 35100.00000 0 18054779.385 -17382011.986 -4675957.070 10 0 59452 36000.00000 0 17479294.914 -16857429.142 -7757336.442 10 0 59452 36900.00000 0 16729887.560 -15989792.882 -10687741.552 10 0 59452 37800.00000 0 15863375.307 -14773102.768 -13410109.997 10 0 59452 38700.00000 0 14938314.616 -13214262.105 -15871424.160 10 0 59452 39600.00000 0 14012416.107 -11333030.530 -18023751.909 10 0 59452 40500.00000 0 13140013.432 -9161442.998 -19825186.759 10 0 59452 41400.00000 0 12369693.030 -6742718.403 -21240668.695 10 0 59452 42300.00000 0 11742185.553 -4129702.860 -22242669.296 10 0 59452 43200.00000 0 11288608.284 -1382912.180 -22811727.850 10 0 59452 44100.00000 0 11029132.865 1431745.036 -22936828.147 10 0 59452 45000.00000 0 10972134.347 4245468.865 -22615608.923 10 0 59452 45900.00000 0 11113857.040 6989190.016 -21854404.295 10 0 59452 46800.00000 0 11438610.662 9596203.348 -20668113.795 10 0 59452 47700.00000 0 11919487.767 12004703.555 -19079905.036 10 0 59452 48600.00000 0 12519571.425 14160118.023 -17120755.202 10 0 59452 49500.00000 0 13193581.342 16017140.483 -14828840.670 10 0 59452 50400.00000 0 13889888.252 17541381.643 -12248787.117 10 0 59452 51300.00000 0 14552810.795 18710569.270 -9430795.045 10 0 59452 52200.00000 0 15125097.384 19515249.166 -6429658.140 10 0 59452 53100.00000 0 15550487.782 19958959.338 -3303694.044 10 0 59452 54000.00000 0 15776245.943 20057871.980 -113608.661 10 0 59452 54900.00000 0 15755557.014 19839920.060 3078683.586 10 0 59452 55800.00000 0 15449687.327 19343446.853 6211260.311 10 0 59452 56700.00000 0 14829816.320 18615436.627 9223389.200 10 0 59452 57600.00000 0 13878463.265 17709401.971 12056700.360 10 0 59452 58500.00000 0 12590448.796 16683017.272 14656310.540 10 0 59452 59400.00000 0 10973350.703 15595598.154 16971878.027 10 0 59452 60300.00000 0 9047434.503 14505532.615 18958568.571 10 0 59452 61200.00000 0 6845061.123 13467771.314 20577914.516 10 0 59452 62100.00000 0 4409595.499 12531481.577 21798551.535 10 0 59452 63000.00000 0 1793860.308 11737962.649 22596819.704 10 0 59452 63900.00000 0 -941802.205 11118908.700 22957218.063 10 0 59452 64800.00000 0 -3731781.525 10695091.634 22872704.469 10 0 59452 65700.00000 0 -6507671.650 10475518.330 22344835.183 10 0 59452 66600.00000 0 -9200864.466 10457097.481 21383741.332 10 0 59452 67500.00000 0 -11745157.846 10624830.097 20007942.176 10 0 59452 68400.00000 0 -14079271.688 10952516.163 18243997.913 10 0 59452 69300.00000 0 -16149168.418 11403948.482 16126007.606 10 0 59452 70200.00000 0 -17910082.250 11934544.364 13694960.707 10 0 59452 71100.00000 0 -19328173.076 12493347.339 10997953.404 10 0 59452 72000.00000 0 -20381735.989 13025315.194 8087283.896 10 0 59452 72900.00000 0 -21061915.691 13473798.214 5019443.269 10 0 59452 73800.00000 0 -21372895.593 13783102.964 1854020.944 10 0 59452 74700.00000 0 -21331553.262 13901032.798 -1347454.072 10 0 59452 75600.00000 0 -20966596.492 13781296.781 -4522713.423 10 0 59452 76500.00000 0 -20317216.318 13385683.825 -7609967.195 10 0 59452 77400.00000 0 -19431313.861 12685908.546 -10549114.652 10 0 59452 78300.00000 0 -18363376.257 11665049.040 -13282923.363 10 0 59452 79200.00000 0 -17172091.883 10318514.029 -15758152.769 10 0 59452 80100.00000 0 -15917806.287 8654496.841 -17926599.287 10 0 59452 81000.00000 0 -14659926.989 6693895.528 -19746041.846 10 0 59452 81900.00000 0 -13454387.342 4469701.060 -21181068.939 10 0 59452 82800.00000 0 -12351276.975 2025878.234 -22203770.716 10 0 59452 83700.00000 0 -11392739.054 -584214.636 -22794282.617 10 0 59452 84600.00000 0 -10611222.925 -3299801.813 -22941170.147 10 0 59452 85500.00000 0 -10028165.541 -6054979.743 -22641647.541 10 0 59453 0.00000 0 -9653156.544 -8781224.991 -21901626.549 10 0 59453 900.00000 0 -9483621.584 -11410016.247 -20735594.625 10 0 59453 1800.00000 0 -9505035.502 -13875461.353 -19166325.797 10 0 59453 2700.00000 0 -9691656.467 -16116819.970 -17224429.673 10 0 59453 3600.00000 0 -10007747.594 -18080818.042 -14947748.268 10 0 59453 4500.00000 0 -10409234.293 -19723657.486 -12380612.540 10 0 59453 5400.00000 0 -10845725.900 -21012638.665 -9572973.603 10 0 59453 6300.00000 0 -11262815.399 -21927328.976 -6579425.848 10 0 59453 7200.00000 0 -11604559.295 -22460230.048 -3458141.467 10 0 59453 8100.00000 0 -11816032.275 -22616917.215 -269737.468 10 0 59453 9000.00000 0 -11845848.319 -22415647.056 2923902.504 10 0 59453 9900.00000 0 -11648541.544 -21886450.966 6060828.273 10 0 59453 10800.00000 0 -11186706.198 -21069754.306 9080221.847 10 0 59453 11700.00000 0 -10432805.498 -20014580.220 11923571.550 10 0 59453 12600.00000 0 -9370573.122 -18776414.369 14535799.067 10 0 59453 13500.00000 0 -7995948.285 -17414820.639 16866318.157 10 0 59453 14400.00000 0 -6317504.808 -15990907.839 18870005.289 10 0 59453 15300.00000 0 -4356355.701 -14564753.235 20508064.314 10 0 59453 16200.00000 0 -2145536.384 -13192890.144 21748769.453 10 0 59453 17100.00000 0 271108.927 -11925963.807 22568073.230 10 0 59453 18000.00000 0 2840492.657 -10806652.614 22950068.370 10 0 59453 18900.00000 0 5502237.740 -9867940.591 22887295.372 10 0 59453 19800.00000 0 8190940.619 -9131812.486 22380890.015 10 0 59453 20700.00000 0 10838651.174 -8608425.455 21440567.839 10 0 59453 21600.00000 0 13377468.476 -8295791.648 20084445.377 10 0 59453 22500.00000 0 15742146.131 -8179984.964 18338700.719 10 0 59453 23400.00000 0 17872600.117 -8235863.618 16237078.856 10 0 59453 24300.00000 0 19716215.696 -8428278.582 13820250.131 10 0 59453 25200.00000 0 21229857.715 -8713717.688 11135032.869 10 0 59453 26100.00000 0 22381500.446 -9042316.620 8233494.207 10 0 59453 27000.00000 0 23151408.565 -9360152.323 5171945.611 10 0 59453 27900.00000 0 23532819.395 -9611721.985 2009852.009 10 0 59453 28800.00000 0 23532097.156 -9742502.479 -1191324.356 10 0 59453 29700.00000 0 23168352.273 -9701481.222 -4369322.690 10 0 59453 30600.00000 0 22472541.347 -9443550.207 -7462301.158 10 0 59453 31500.00000 0 21486085.539 -8931660.430 -10410048.528 10 0 59453 32400.00000 0 20259065.671 -8138643.890 -13155165.420 10 0 59453 33300.00000 0 18848070.446 -7048624.279 -15644191.137 10 0 59453 34200.00000 0 17313789.021 -5657955.029 -17828653.119 10 0 59453 35100.00000 0 15718450.025 -3975643.423 -19666017.825 10 0 59453 36000.00000 0 14123215.502 -2023241.345 -21120523.983 10 0 59453 36900.00000 0 12585640.057 165793.976 -22163881.617 10 0 59453 37800.00000 0 11157302.427 2547243.449 -22775823.207 10 0 59453 38700.00000 0 9881709.112 5067726.771 -22944496.400 10 0 59453 39600.00000 0 8792557.929 7666693.741 -22666690.904 10 0 59453 40500.00000 0 7912433.868 10278723.473 -21947895.561 10 0 59453 41400.00000 0 7251991.089 12836035.844 -20802184.929 10 0 59453 42300.00000 0 6809654.312 15271110.510 -19251938.028 10 0 59453 43200.00000 0 6571850.725 17519304.611 -17327395.173 10 0 59453 44100.00000 0 6513761.165 19521360.269 -15066061.888 10 0 59453 45000.00000 0 6600557.402 21225697.695 -12511971.965 10 0 59453 45900.00000 0 6789071.876 22590398.841 -9714824.371 10 0 59453 46800.00000 0 7029828.104 23584799.596 -6729011.189 10 0 59453 47700.00000 0 7269344.850 24190624.929 -3612555.963 10 0 59453 48600.00000 0 7452615.796 24402620.767 -425983.488 10 0 59453 49500.00000 0 7525659.218 24228657.464 2768856.692 10 0 59453 50400.00000 0 7438029.496 23689301.869 5909989.859 10 0 59453 51300.00000 0 7145184.090 22816877.290 8936515.416 10 0 59453 52200.00000 0 6610605.966 21654051.859 11789782.728 10 0 59453 53100.00000 0 5807591.947 20252015.352 14414520.947 10 0 59453 54000.00000 0 4720631.594 18668321.412 16759901.490 10 0 59453 54900.00000 0 3346318.444 16964485.600 18780513.400 10 0 59453 55800.00000 0 1693754.965 15203439.592 20437233.538 10 0 59453 56700.00000 0 -215566.434 13446947.315 21697975.820 10 0 59453 57600.00000 0 -2348402.420 11753090.026 22538306.000 10 0 59453 58500.00000 0 -4660892.427 10173924.297 22941910.887 10 0 59453 59400.00000 0 -7100141.398 8753409.444 22900913.591 10 0 59453 60300.00000 0 -9606187.608 7525689.749 22416028.932 10 0 59453 61200.00000 0 -12114275.557 6513802.280 21496555.904 10 0 59453 62100.00000 0 -14557341.351 5728863.507 20160206.858 10 0 59453 63000.00000 0 -16868608.972 5169768.304 18432775.827 10 0 59453 63900.00000 0 -18984190.726 4823413.829 16347651.332 10 0 59453 64800.00000 0 -20845584.663 4665438.948 13945181.804 10 0 59453 65700.00000 0 -22401965.394 4661448.418 11271904.613 10 0 59453 66600.00000 0 -23612172.724 4768670.641 8379652.535 10 0 59453 67500.00000 0 -24446314.706 4937979.328 5324554.036 10 0 59453 68400.00000 0 -24886917.370 5116193.742 2165946.180 10 0 59453 69300.00000 0 -24929572.131 5248560.057 -1034778.833 10 0 59453 70200.00000 0 -24583052.880 5281308.229 -4215370.893 10 0 59453 71100.00000 0 -23868897.131 5164175.118 -7313939.183 10 0 59453 72000.00000 0 -22820468.302 4852785.784 -10270164.696 10 0 59453 72900.00000 0 -21481538.365 4310790.524 -13026483.567 10 0 59453 73800.00000 0 -19904450.532 3511665.521 -15529217.122 10 0 59453 74700.00000 0 -18147939.599 2440099.235 -17729625.631 10 0 59453 75600.00000 0 -16274702.115 1092904.253 -19584864.456 10 0 59453 76500.00000 0 -14348819.032 -520585.449 -21058823.466 10 0 59453 77400.00000 0 -12433139.689 -2378649.906 -22122832.949 10 0 59453 78300.00000 0 -10586737.294 -4447846.701 -22756222.292 10 0 59453 79200.00000 0 -8862542.783 -6684175.738 -22946720.652 10 0 59453 80100.00000 0 -7305256.130 -9034697.050 -22690692.102 10 0 59453 81000.00000 0 -5949622.129 -11439534.422 -21993201.094 10 0 59453 81900.00000 0 -4819142.023 -13834181.407 -20867907.366 10 0 59453 82800.00000 0 -3925273.841 -16152013.504 -19336792.821 10 0 59453 83700.00000 0 -3267153.476 -18326901.761 -17429726.111 10 0 59453 84600.00000 0 -2831846.527 -20295818.865 -15183873.791 10 0 59453 85500.00000 0 -2595118.549 -22001328.992 -12642969.943 10 0 59454 0.00000 0 -2522689.492 -23393857.851 -9856458.930 10 0 59454 900.00000 0 -2571917.701 -24433648.299 -6878527.955 10 0 59454 1800.00000 0 -2693841.094 -25092321.104 -3767049.646 10 0 59454 2700.00000 0 -2835487.758 -25353975.013 -582454.395 10 0 59454 3600.00000 0 -2942357.628 -25215782.756 2613444.408 10 0 59454 4500.00000 0 -2960969.470 -24688057.799 5758649.438 10 0 59454 5400.00000 0 -2841365.182 -23793790.775 8792179.321 10 0 59454 6300.00000 0 -2539465.368 -22567675.829 11655246.209 10 0 59454 7200.00000 0 -2019176.760 -21054668.474 14292388.371 10 0 59454 8100.00000 0 -1254162.617 -19308135.891 16652536.440 10 0 59454 9000.00000 0 -229201.489 -17387677.135 18689993.455 10 0 59454 9900.00000 0 1058922.906 -15356704.215 20365310.539 10 0 59454 10800.00000 0 2601038.540 -13279884.422 21646042.356 10 0 59454 11700.00000 0 4375725.509 -11220549.660 22507368.707 10 0 59454 12600.00000 0 6349975.245 -9238179.696 22932571.062 10 0 59454 13500.00000 0 8480342.474 -7386062.849 22913355.463 10 0 59454 14400.00000 0 10714543.615 -5709230.247 22450015.837 10 0 59454 15300.00000 0 12993436.860 -4242748.583 21551434.455 10 0 59454 16200.00000 0 15253303.382 -3010441.473 20234919.060 10 0 59454 17100.00000 0 17428336.515 -2024092.027 18525878.958 10 0 59454 18000.00000 0 19453236.639 -1283159.500 16457345.261 10 0 59454 18900.00000 0 21265804.782 -775021.652 14069343.271 10 0 59454 19800.00000 0 22809427.415 -475732.631 11408127.873 10 0 59454 20700.00000 0 24035348.736 -351264.641 8525295.615 10 0 59454 21600.00000 0 24904635.179 -359181.231 5476789.753 10 0 59454 22500.00000 0 25389749.169 -450671.578 2321816.952 10 0 59454 23400.00000 0 25475665.175 -572859.652 -878303.438 10 0 59454 24300.00000 0 25160480.182 -671290.076 -4061335.018 10 0 59454 25200.00000 0 24455491.864 -692484.606 -7165341.092 10 0 59454 26100.00000 0 23384740.314 -586459.864 -10129897.974 10 0 59454 27000.00000 0 21984031.940 -309098.296 -12897280.282 10 0 59454 27900.00000 0 20299486.224 175729.636 -15413594.127 10 0 59454 28800.00000 0 18385666.386 894383.419 -17629835.099 10 0 59454 29700.00000 0 16303372.687 1862087.613 -19502849.676 10 0 59454 30600.00000 0 14117191.312 3082043.309 -20996180.752 10 0 59454 31500.00000 0 11892902.136 4545054.732 -22080780.465 10 0 59454 32400.00000 0 9694854.321 6229687.885 -22735576.348 10 0 59454 33300.00000 0 7583419.808 8102955.537 -22947879.945 10 0 59454 34200.00000 0 5612631.276 10121500.435 -22713630.188 10 0 59454 35100.00000 0 3828102.938 12233227.667 -22037467.195 10 0 59454 36000.00000 0 2265320.372 14379318.108 -20932635.505 10 0 59454 36900.00000 0 948369.880 16496538.792 -19420719.052 10 0 59454 37800.00000 0 -110840.914 18519753.646 -17531213.525 10 0 59454 38700.00000 0 -912840.314 20384529.646 -15300944.764 10 0 59454 39600.00000 0 -1470318.707 22029729.319 -12773344.987 10 0 59454 40500.00000 0 -1807337.142 23399981.320 -9997601.308 10 0 59454 41400.00000 0 -1958053.631 24447925.887 -7027693.458 10 0 59454 42300.00000 0 -1965022.580 25136141.486 -3921339.954 10 0 59454 43200.00000 0 -1877140.768 25438672.514 -738873.538 10 0 59454 44100.00000 0 -1747327.880 25342094.697 2457931.889 10 0 59454 45000.00000 0 -1630040.580 24846074.335 5607059.701 10 0 59454 45900.00000 0 -1578725.837 23963398.763 8647450.978 10 0 59454 46800.00000 0 -1643321.446 22719477.561 11520183.709 10 0 59454 47700.00000 0 -1867909.406 21151336.054 14169608.101 10 0 59454 48600.00000 0 -2288621.102 19306143.642 16544416.560 10 0 59454 49500.00000 0 -2931882.497 17239338.591 18598628.367 10 0 59454 50400.00000 0 -3813073.132 15012427.408 20292470.855 10 0 59454 51300.00000 0 -4935655.459 12690549.995 21593141.040 10 0 59454 52200.00000 0 -6290811.511 10339911.100 22475434.024 10 0 59454 53100.00000 0 -7857602.865 8025183.877 22922226.794 10 0 59454 54000.00000 0 -9603648.392 5806992.191 22924808.758 10 0 59454 54900.00000 0 -11486292.952 3739574.913 22483052.906 10 0 59454 55800.00000 0 -13454219.914 1868728.084 21605424.231 10 0 59454 56700.00000 0 -15449442.070 230109.289 20308824.772 10 0 59454 57600.00000 0 -17409589.678 -1152026.139 18618277.471 10 0 59454 58500.00000 0 -19270401.732 -2265605.047 16566453.859 10 0 59454 59400.00000 0 -20968317.741 -3111000.434 14193053.467 10 0 59454 60300.00000 0 -22443062.551 -3700768.678 11544045.650 10 0 59454 61200.00000 0 -23640116.410 -4058871.053 8670787.372 10 0 59454 62100.00000 0 -24512966.661 -4219412.317 5629033.141 10 0 59454 63000.00000 0 -25025046.051 -4224949.552 2477855.587 10 0 59454 63900.00000 0 -25151275.288 -4124442.788 -721502.418 10 0 59454 64800.00000 0 -24879143.827 -3970934.457 -3906821.714 10 0 59454 65700.00000 0 -24209282.186 -3819056.546 -7016123.111 10 0 59454 66600.00000 0 -23155500.452 -3722471.944 -9988881.424 10 0 59454 67500.00000 0 -21744290.366 -3731359.555 -12767212.680 10 0 59454 68400.00000 0 -20013811.115 -3890051.116 -15297010.392 10 0 59454 69300.00000 0 -18012401.008 -4234921.200 -17529007.704 10 0 59454 70200.00000 0 -15796677.381 -4792621.188 -19419743.967 10 0 59454 71100.00000 0 -13429304.431 -5578733.266 -20932416.333 10 0 59454 72000.00000 0 -10976522.821 -6596902.525 -22037599.406 10 0 59454 72900.00000 0 -8505544.653 -7838484.838 -22713818.866 10 0 59454 73800.00000 0 -6081922.900 -9282726.233 -22947968.031 10 0 59454 74700.00000 0 -3767005.291 -10897466.827 -22735559.497 10 0 59454 75600.00000 0 -1615578.650 -12640340.201 -22080807.365 10 0 59454 76500.00000 0 326198.546 -14460418.160 -20996538.864 10 0 59454 77400.00000 0 2022489.944 -16300231.940 -19503937.550 10 0 59454 78300.00000 0 3449031.980 -18098085.141 -17632123.491 10 0 59454 79200.00000 0 4593890.763 -19790561.396 -15417579.011 10 0 59454 80100.00000 0 5457695.307 -21315121.525 -12903431.594 10 0 59454 81000.00000 0 6053339.387 -22612681.278 -10138608.283 10 0 59454 81900.00000 0 6405166.652 -23630061.601 -7176878.397 10 0 59454 82800.00000 0 6547675.243 -24322208.770 -4075803.669 10 0 59454 83700.00000 0 6523798.416 -24654091.515 -895616.607 10 0 59454 84600.00000 0 6382835.235 -24602195.954 2301950.791 10 0 59454 85500.00000 0 6178119.994 -24155556.097 5454864.837 99